| time (UTC) | temp F | wind direction | speed knots | gust knots | rain 1hr in | rain 24hr in | rain mn in | humidity % | barometer mb |
| 20260503020903 | 48 | 299 | 0.9 | 3.5 | 0.01 | 0.10 | 0.10 | 100 | |
| 20260503020003 | 48 | 308 | 0.0 | 2.6 | 0.00 | 0.09 | 0.09 | 100 | |
| 20260503015403 | 48 | 0 | 0.0 | 0.0 | 0.00 | 0.09 | 0.09 | 100 | |
| 20260503014503 | 48 | 0 | 0.0 | 0.0 | 0.00 | 0.09 | 0.09 | 100 | |
| 20260503013818 | 48 | 10 | 0.0 | 1.7 | 0.00 | 0.09 | 0.09 | 100 | |
| 20260503012917 | 49 | 320 | 0.0 | 0.9 | 0.00 | 0.09 | 0.09 | 100 | |
| 20260503011803 | 49 | 289 | 0.0 | 0.9 | 0.00 | 0.09 | 0.09 | 100 | |
| 20260503010903 | 49 | 0 | 0.0 | 0.0 | 0.01 | 0.09 | 0.09 | 100 | |
| 20260503010003 | 49 | 0 | 0.0 | 0.0 | 0.01 | 0.09 | 0.09 | 100 | |
| 20260503005619 | 49 | 0 | 0.0 | 0.0 | 0.01 | 0.09 | 0.09 | 100 | |
| 20260503004503 | 49 | 289 | 0.0 | 0.9 | 0.02 | 0.09 | 0.09 | 100 | |
| 20260503003603 | 49 | 289 | 0.0 | 0.9 | 0.02 | 0.09 | 0.09 | 100 | |
| 20260503002917 | 49 | 305 | 0.0 | 0.9 | 0.02 | 0.09 | 0.09 | 100 | |
| 20260503001803 | 49 | 0 | 0.0 | 0.0 | 0.03 | 0.09 | 0.09 | 100 | |
| 20260503000903 | 49 | 183 | 0.0 | 0.9 | 0.02 | 0.09 | 0.09 | 100 | |
| 20260503000219 | 49 | 0 | 0.0 | 0.0 | 0.03 | 0.09 | 0.09 | 100 | |
| 20260502235403 | 49 | 0 | 0.0 | 0.0 | 0.03 | 0.08 | 0.08 | 100 | |
| 20260502234503 | 49 | 168 | 0.0 | 1.7 | 0.05 | 0.08 | 0.08 | 100 | |
| 20260502233603 | 49 | 150 | 0.0 | 1.7 | 0.05 | 0.07 | 0.07 | 100 | |
| 20260502232703 | 49 | 0 | 0.0 | 0.0 | 0.06 | 0.07 | 0.07 | 100 | |
| 20260502231803 | 49 | 0 | 0.0 | 0.0 | 0.06 | 0.06 | 0.06 | 97 | |
| 20260502230903 | 49 | 0 | 0.0 | 0.0 | 0.06 | 0.06 | 0.06 | 93 | |
| 20260502230003 | 49 | 233 | 0.0 | 0.9 | 0.06 | 0.06 | 0.06 | 92 | |
| 20260502225403 | 50 | 275 | 0.0 | 1.7 | 0.05 | 0.05 | 0.05 | 90 | |
| 20260502224718 | 50 | 274 | 0.0 | 0.9 | 0.03 | 0.03 | 0.03 | 87 | |
| 20260502223603 | 50 | 296 | 0.0 | 1.7 | 0.02 | 0.02 | 0.02 | 85 | |
| 20260502222703 | 52 | 0 | 0.0 | 0.0 | 0.02 | 0.02 | 0.02 | 81 | |
| 20260502222016 | 52 | 287 | 0.9 | 5.2 | 0.01 | 0.01 | 0.01 | 77 | |
| 20260502220903 | 53 | 293 | 2.6 | 8.7 | 0.00 | 0.00 | 0.00 | 70 | |
| 20260502220003 | 54 | 288 | 4.3 | 9.6 | 0.00 | 0.00 | 0.00 | 66 | |
| 20260502215618 | 54 | 294 | 3.5 | 9.6 | 0.00 | 0.00 | 0.00 | 64 | |
| 20260502214503 | 55 | 293 | 1.7 | 7.8 | 0.00 | 0.00 | 0.00 | 61 | |
| 20260502213603 | 55 | 293 | 0.9 | 5.2 | 0.00 | 0.00 | 0.00 | 60 | |
| 20260502212703 | 55 | 278 | 1.7 | 5.2 | 0.00 | 0.00 | 0.00 | 60 | |
| 20260502211803 | 56 | 283 | 2.6 | 8.7 | 0.00 | 0.00 | 0.00 | 58 | |
| 20260502211119 | 56 | 295 | 3.5 | 9.6 | 0.00 | 0.00 | 0.00 | 58 | |
| 20260502210003 | 56 | 293 | 1.7 | 6.1 | 0.00 | 0.00 | 0.00 | 52 | |
| 20260502205403 | 57 | 296 | 0.9 | 4.3 | 0.00 | 0.00 | 0.00 | 52 | |
| 20260502204503 | 57 | 334 | 0.0 | 1.7 | 0.00 | 0.00 | 0.00 | 47 | |
| 20260502203603 | 57 | 311 | 0.0 | 1.7 | 0.00 | 0.00 | 0.00 | 46 | |
| 20260502202703 | 56 | 296 | 0.9 | 3.5 | 0.00 | 0.00 | 0.00 | 48 | |
| 20260502201803 | 56 | 278 | 0.0 | 0.9 | 0.00 | 0.00 | 0.00 | 51 | |
| 20260502200903 | 57 | 278 | 0.0 | 0.9 | 0.00 | 0.00 | 0.00 | 49 | |
| 20260502200218 | 58 | 278 | 0.0 | 0.9 | 0.00 | 0.00 | 0.00 | 47 | |
| 20260502195403 | 58 | 278 | 0.0 | 0.9 | 0.00 | 0.00 | 0.00 | 46 | |
| 20260502194503 | 59 | 278 | 0.0 | 0.9 | 0.00 | 0.00 | 0.00 | 45 | |
| 20260502193603 | 59 | 283 | 0.9 | 4.3 | 0.00 | 0.00 | 0.00 | 44 | |
| 20260502192703 | 60 | 280 | 1.7 | 6.1 | 0.00 | 0.00 | 0.00 | 43 | |
| 20260502191803 | 60 | 271 | 2.6 | 5.2 | 0.00 | 0.00 | 0.00 | 42 | |
| 20260502190903 | 61 | 281 | 2.6 | 8.7 | 0.00 | 0.00 | 0.00 | 43 | |
| 20260502190004 | 61 | 269 | 3.5 | 8.7 | 0.00 | 0.00 | 0.00 | 42 | |
| 20260502185403 | 61 | 270 | 4.3 | 9.6 | 0.00 | 0.00 | 0.00 | 42 | |
| 20260502184503 | 62 | 276 | 5.2 | 10.4 | 0.00 | 0.00 | 0.00 | 41 | |
| 20260502183603 | 62 | 280 | 4.3 | 12.2 | 0.00 | 0.00 | 0.00 | 41 | |
| 20260502182703 | 63 | 274 | 4.3 | 12.2 | 0.00 | 0.00 | 0.00 | 40 | |
| 20260502181803 | 63 | 262 | 5.2 | 11.3 | 0.00 | 0.00 | 0.00 | 39 | |
| 20260502181118 | 63 | 267 | 6.1 | 12.2 | 0.00 | 0.00 | 0.00 | 39 | |
| 20260502163603 | 67 | 265 | 6.1 | 11.3 | 0.00 | 0.00 | 0.00 | 32 | |
| 20260502162703 | 67 | 261 | 7.0 | 13.9 | 0.00 | 0.00 | 0.00 | 32 | |
| 20260502161803 | 68 | 273 | 7.8 | 20.9 | 0.00 | 0.00 | 0.00 | 33 | |
| 20260502161117 | 68 | 271 | 7.0 | 20.9 | 0.00 | 0.00 | 0.00 | 31 | |
| 20260502152017 | 70 | 265 | 7.8 | 17.4 | 0.00 | 0.00 | 0.00 | 31 | |
| 20260502150903 | 69 | 268 | 8.7 | 21.7 | 0.00 | 0.00 | 0.00 | 32 | |
| 20260502122703 | 68 | 269 | 10.4 | 24.3 | 0.00 | 0.00 | 0.00 | 35 | |
| 20260502122016 | 68 | 271 | 12.2 | 26.1 | 0.00 | 0.00 | 0.00 | 37 | |
| 20260502120903 | 68 | 265 | 9.6 | 22.6 | 0.00 | 0.00 | 0.00 | 38 | |
| 20260502115403 | 68 | 266 | 10.4 | 21.7 | 0.00 | 0.00 | 0.00 | 39 | |
| 20260502114503 | 68 | 272 | 6.1 | 13.9 | 0.00 | 0.00 | 0.00 | 39 | |
| 20260502113603 | 68 | 263 | 8.7 | 21.7 | 0.00 | 0.00 | 0.00 | 38 | |
| 20260502112703 | 68 | 259 | 10.4 | 21.7 | 0.00 | 0.00 | 0.00 | 41 | |
| 20260502111803 | 68 | 265 | 9.6 | 21.7 | 0.00 | 0.00 | 0.00 | 39 | |
| 20260502110903 | 68 | 262 | 7.8 | 16.5 | 0.00 | 0.00 | 0.00 | 38 | |
| 20260502110003 | 68 | 267 | 7.8 | 14.8 | 0.00 | 0.00 | 0.00 | 39 | |
| 20260502105403 | 68 | 269 | 10.4 | 23.5 | 0.00 | 0.00 | 0.00 | 40 | |
| 20260502104503 | 67 | 267 | 8.7 | 17.4 | 0.00 | 0.00 | 0.00 | 39 | |
| 20260502103603 | 67 | 276 | 8.7 | 20.9 | 0.00 | 0.00 | 0.00 | 40 | |
| 20260502102703 | 67 | 270 | 7.8 | 20.9 | 0.00 | 0.00 | 0.00 | 39 | |
| 20260502100903 | 66 | 267 | 6.1 | 15.6 | 0.00 | 0.00 | 0.00 | 42 | |
| 20260502090903 | 63 | 269 | 8.7 | 18.2 | 0.00 | 0.00 | 0.00 | 43 | |
| 20260502090217 | 63 | 268 | 10.4 | 20.9 | 0.00 | 0.00 | 0.00 | 43 | |
| 20260502070903 | 58 | 272 | 5.2 | 9.6 | 0.00 | 0.00 | 0.00 | 42 | |
| 20260502070003 | 57 | 276 | 6.1 | 12.2 | 0.00 | 0.00 | 0.00 | 43 | |
| 20260502065616 | 57 | 275 | 6.1 | 12.2 | 0.00 | 0.00 | 0.00 | 43 | |
| 20260502064503 | 56 | 262 | 5.2 | 11.3 | 0.00 | 0.00 | 0.00 | 46 | |
| 20260502063603 | 55 | 266 | 6.1 | 12.2 | 0.00 | 0.00 | 0.00 | 49 | |
| 20260502062703 | 54 | 274 | 5.2 | 14.8 | 0.00 | 0.00 | 0.00 | 51 | |
| 20260502061803 | 54 | 270 | 6.1 | 13.9 | 0.00 | 0.00 | 0.00 | 52 | |
| 20260502060903 | 53 | 269 | 7.0 | 12.2 | 0.00 | 0.00 | 0.00 | 53 | |
| 20260502060003 | 52 | 270 | 6.1 | 12.2 | 0.00 | 0.00 | 0.00 | 54 | |
| 20260502055403 | 52 | 266 | 6.1 | 13.9 | 0.00 | 0.00 | 0.00 | 56 | |
| 20260502054503 | 51 | 268 | 6.1 | 13.9 | 0.00 | 0.00 | 0.00 | 57 | |
| 20260502053603 | 50 | 271 | 5.2 | 13.0 | 0.00 | 0.00 | 0.00 | 60 | |
| 20260502052703 | 50 | 267 | 7.0 | 12.2 | 0.00 | 0.00 | 0.00 | 60 | |
| 20260502051803 | 49 | 272 | 7.0 | 12.2 | 0.00 | 0.00 | 0.00 | 61 | |
| 20260502051117 | 49 | 268 | 7.0 | 12.2 | 0.00 | 0.00 | 0.00 | 61 | |
| 20260502050003 | 48 | 274 | 5.2 | 12.2 | 0.00 | 0.00 | 0.00 | 62 | |
| 20260502045403 | 48 | 274 | 5.2 | 12.2 | 0.00 | 0.00 | 0.00 | 63 | |
| 20260502044503 | 48 | 269 | 5.2 | 10.4 | 0.00 | 0.00 | 0.00 | 63 | |
| 20260502043818 | 48 | 268 | 4.3 | 10.4 | 0.00 | 0.00 | 0.00 | 64 | |
| 20260502042703 | 48 | 272 | 4.3 | 11.3 | 0.00 | 0.00 | 0.00 | 64 | |
| 20260502041803 | 48 | 271 | 4.3 | 8.7 | 0.00 | 0.00 | 0.00 | 65 | |
| 20260502041116 | 48 | 269 | 4.3 | 9.6 | 0.00 | 0.00 | 0.00 | 63 | |
| 20260502040216 | 48 | 282 | 3.5 | 10.4 | 0.00 | 0.00 | 0.00 | 62 | |
| 20260502035403 | 48 | 278 | 2.6 | 7.8 | 0.00 | 0.00 | 0.00 | 63 | |
| 20260502034503 | 48 | 277 | 3.5 | 8.7 | 0.00 | 0.00 | 0.00 | 63 | |
| 20260502033818 | 48 | 266 | 2.6 | 8.7 | 0.00 | 0.00 | 0.00 | 63 | |
| 20260502032703 | 48 | 279 | 4.3 | 12.2 | 0.00 | 0.00 | 0.00 | 63 | |
| 20260502031803 | 48 | 275 | 3.5 | 9.6 | 0.00 | 0.00 | 0.00 | 63 | |
| 20260502030903 | 48 | 277 | 3.5 | 8.7 | 0.00 | 0.00 | 0.00 | 63 | |
| 20260502030003 | 48 | 270 | 3.5 | 9.6 | 0.00 | 0.00 | 0.00 | 64 | |
| 20260502025619 | 48 | 267 | 3.5 | 9.6 | 0.00 | 0.00 | 0.00 | 63 | |
| 20260502024503 | 48 | 266 | 4.3 | 9.6 | 0.00 | 0.00 | 0.00 | 63 | |
| 20260502023603 | 48 | 269 | 3.5 | 9.6 | 0.00 | 0.00 | 0.00 | 63 | |
| 20260502022703 | 48 | 270 | 4.3 | 9.6 | 0.00 | 0.00 | 0.00 | 62 | |
| 20260502021803 | 49 | 269 | 4.3 | 13.0 | 0.00 | 0.00 | 0.00 | 62 |